Hourly Data Report for September 02, 2017

All times are specified in Local Standard Time (LST). Add 1 hour to adjust for Daylight Saving Time where and when it is observed.

PANGNIRTUNG
NUNAVUT

66°08'36.300" N
65°42'40.500" W
22.60 m
2403049
71826
WXP

Download Data

Hourly Data (September 2017)
Hourly Data Report for September 2, 2017
Temp Definition
°C
Dew Point Temp Definition
°C
Rel Hum Definition
%
Wind Dir Definition
10's deg

Wind Spd Definition
km/h
Visibility Definition
km
Stn Press Definition
kPa
Hmdx Definition


Wind Chill Definition


Weather Definition


TIME
00:00 6.0 5.9 100 24 15   99.54     LegendNANA
01:00 5.2 4.9 98 23 23   99.52     LegendNANA
02:00 3.9 3.4 97 25 19   99.57     LegendNANA
03:00 3.6 3.2 97 24 14   99.64     LegendNANA
04:00 3.9 3.4 97 20 6   99.71     LegendNANA
05:00 3.1 2.7 98 24 9   99.77     LegendNANA
06:00 3.7 3.5 98 25 9   99.87     LegendNANA
07:00 3.9 3.5 98 27 4   99.89     LegendNANA
08:00 4.6 3.9 95 35 2   99.93     LegendNANA
09:00 5.5 3.9 90 10 2   99.95     LegendNANA
10:00 6.8 4.4 85 28 5   99.96     LegendNANA
11:00 6.1 4.3 88 24 17   100.02     LegendNANA
12:00 6.1 4.3 88 25 18   100.08     LegendNANA
13:00 5.9 4.5 91 25 18   100.13     LegendNANA
14:00 5.7 3.4 85 25 14   100.15     LegendNANA
15:00 6.2 4.0 86 25 7   100.16     LegendNANA
16:00 6.6 4.2 84 27 2   100.19     LegendNANA
17:00 5.5 3.7 88 25 17   100.25     LegendNANA
18:00 7.4 3.1 74 19 13   100.29     LegendNANA
19:00 5.7 2.5 80 22 6   100.34     LegendNANA
20:00 5.2 2.6 84 25 10   100.36     LegendNANA
21:00 4.8 2.5 85 23 7   100.40     LegendNANA
22:00 4.3 2.2 86 3 1   100.41     LegendNANA
23:00 4.2 2.2 87 0 1   100.41     LegendNANA

Notes on Data Quality.

Legend

  • E = Estimated
  • M = Missing
  • NA = Not Available
  • ‡ = Partner data that is not subject to review by the National Climate Archives
Date modified: